Torna al catalogo

COSMOS 2251 DEB

AttivoVLEO
NORAD 35670·DEBRIS·🇷🇺 Russia

Lanciato Jun 16, 1993 da Plesetsk Cosmodrome

Loading…

Prossimi Passaggi (prossime 24 ore)

TLE

AggiornatoSource: Space-Track

Epoca: Sep 14, 2026, 06:36 UTC

1 35670U 93036APM 26257.27512919  .00008405  00000-0  64014-3 0  9995
2 35670  73.8905 220.8922 0027354 125.6233 234.7508 15.01910554918540

Traccia COSMOS 2251 DEB in tempo reale con AllMySat

Download on the App Store